[Iaude] MPEC P03: 2024 OS1 [a=0.90,e=0.17,i=28.3,H=24.5]
    mpec at cfa.harvard.edu 
    mpec at cfa.harvard.edu
       
    Wed Jul 31 21:20:44 EDT 2024
    
    
  
M.P.E.C. 2024-P03                                Issued 2024 August 1, 01:19 UT
     The Minor Planet Electronic Circulars contain information on unusual
         minor planets, routine data on comets and natural satellites,
         and occasional editorial announcements.  They are published
    on behalf of Division F of the International Astronomical Union by the
          Minor Planet Center, Smithsonian Astrophysical Observatory,
                          Cambridge, MA 02138, U.S.A.
			  
             Prepared using the Tamkin Foundation Computer Network
                              MPC at CFA.HARVARD.EDU
            URL https://www.minorplanetcenter.net/    ISSN 1523-6714
                                    2024 OS1                                    
Observations:
     K24O01S  C2024 07 28.46031322 56 14.428-12 22 59.24               VEP003F51
     K24O01S  C2024 07 28.47157422 55 51.278-12 16 31.52         18.50GVEP003F51
     K24O01S  C2024 07 28.48258322 55 28.635-12 10 12.20         18.57GVEP003F51
     K24O01S* C2024 07 30.31022421 49 25.379+08 06 03.68         18.08RUEP003I41
     K24O01S  C2024 07 30.31057121 49 24.496+08 06 17.90         18.08RUEP003I41
     K24O01S  C2024 07 30.40406921 45 36.639+09 12 13.95         18.25RUEP003I41
     K24O01S  C2024 07 30.40441621 45 35.763+09 12 28.69         18.25RUEP003I41
     K24O01S  C2024 07 31.35437521 08 10.754+19 48 44.09         19.01gUEP003I41
     K24O01S  C2024 07 31.35472221 08 09.962+19 48 56.20         19.01gUEP003I41
     K24O01S KC2024 07 31.65014620 56 31.43 +22 46 58.1          18.4 GVEP003900
     K24O01S KC2024 07 31.65926020 56 09.01 +22 52 14.5          18.4 GVEP003900
     K24O01S KC2024 07 31.66837420 55 46.66 +22 57 31.6          18.6 GVEP003900
     K24O01S KB2024 07 31.80942 20 50 28.81 +24 16 49.5          19.2 VZEP003M45
     K24O01S KB2024 07 31.81149 20 50 23.86 +24 17 59.3          19.1 VZEP003M45
     K24O01S KB2024 07 31.87320 20 47 59.63 +24 52 26.2          18.7 GXEP003K19
     K24O01S KB2024 07 31.87505 20 47 55.06 +24 53 26.3          18.5 GXEP003K19
     K24O01S KB2024 07 31.87694 20 47 50.56 +24 54 29.1          17.6 GXEP003K19
     K24O01S KB2024 07 31.88491320 47 29.55 +24 58 22.3          18.6 GVEP003L65
     K24O01S KC2024 07 31.89654720 47 01.64 +25 05 19.6          18.9 GXEP003595
     K24O01S KB2024 07 31.89861220 46 59.98 +25 06 26.0          18.6 GXEP003958
     K24O01S KB2024 07 31.90077620 46 51.57 +25 07 07.4          18.6 GVEP003L65
     K24O01S KB2024 07 31.90261120 46 50.34 +25 08 37.1          18.3 GXEP003958
     K24O01S KC2024 07 31.90311720 46 45.80 +25 08 56.8          18.7 GXEP003595
     K24O01S KB2024 07 31.90666720 46 40.66 +25 10 52.7          18.2 GXEP003958
     K24O01S KC2024 07 31.90981220 46 29.69 +25 12 37.0          18.6 GXEP003595
     K24O01S KB2024 07 31.91666920 46 13.52 +25 15 50.9          18.3 GVEP003L65
     K24O01S KB2024 07 31.92104820 46 05.74 +25 18 43.8          18.6 GXEP003I93
     K24O01S KB2024 07 31.92288320 46 01.34 +25 19 44.0          18.5 GXEP003I93
     K24O01S KB2024 07 31.92467320 45 57.05 +25 20 42.8          18.6 GXEP003I93
     K24O01S 1C2024 07 31.92948 20 45 36.33 +25 23 26.3          18.9 GVEP003C40
     K24O01S 1C2024 07 31.93377 20 45 26.01 +25 25 45.2          18.5 GVEP003C40
     K24O01S 1C2024 07 31.93807 20 45 15.64 +25 28 04.2          18.6 GVEP003C40
     K24O01S 1C2024 07 31.97069 20 43 57.20 +25 45 33.9          18.6 GVEP003C40
     K24O01S 1C2024 07 31.97498 20 43 46.92 +25 47 50.1          18.8 GVEP003C40
     K24O01S 1C2024 07 31.97928 20 43 36.62 +25 50 07.4          19.1 GVEP003C40
Observer details:
595 Farra d'Isonzo.  Observers L. Bittesini, E. Pettarin.  Measurer E.
    Pettarin.  0.61-m f/4.5 reflector + CCD.
900 Moriyama.  Observer Y. Ikari.  0.26-m f/7.0 reflector + CMO.
958 Observatoire de Dax.  Observer P. Dupouy.  0.50-m f/4.5 Reflector + CMO.
C40 Kuban State University Astrophysical Observatory.  Observers A. Ivanov, A.
    Barcov, V. Ivanov, V. Lysenko, N. Yakovenko, N. Ivanova, N. Gorbunov, G.
    Kurbatov, P. Shchukin, V. Roshchupko.  Measurer A. Ivanov.  0.51-m f/8
    reflector + CCD.
F51 Pan-STARRS 1, Haleakala.  Observers J. Herman, T. Lowe, P. Minguez, A.
    Schultz, I. Smith.  Measurers K. Chambers, T. de Boer, J. Fairlamb, H.
    Gao, M. Huber, C.-C. Lin, E. Magnier, Y. Ramanjooloo, R. Wainscoat, R.
    Weryk.  1.8-m Ritchey-Chretien + CCD.
I41 Palomar Mountain--ZTF.  Observers G. Helou, T. A. Prince, K.
    Venkataramani, Y. Wagh, Q.-Z. Ye, Z. T. F. Collaboration, T. Batra.
    Measurers D. A. Duev, H.-W. Lin, A. A. Mahabal, F. J. Masci, Q.-Z. Ye.
    1.2-m f/2.4 Schmidt + ZTF Camera.
I93 St Pardon de Conques.  Observer F. Losse.  0.40-m f/3.7 reflector + CMO.
K19 PASTIS Observatory, Banon.  Observer C. Demeautis.  0.28-m f/2.2 reflector
    + CMO.
L65 Bredenkamp Observatory, Bremen.  Observer H. Duin.  0.23-m f/6.3 reflector
    + CMO.
M45 Starhopper Observatory, Sfantu Gheorghe.  Observer F. Ursache.  0.41-m
    f/7.5 reflector + CMO.
Orbital elements:
2024 OS1                                                 Earth MOID = 0.0281 AU
Epoch 2024 Oct. 17.0 TT = JDT 2460600.5                 Veres                   
M 296.90457              (2000.0)            P               Q                  
n   1.15544174     Peri.  162.40890     -0.35944998     -0.85238627             
a   0.8994369      Node   306.88787     +0.78889350     -0.06018778             
e   0.1706408      Incl.   28.34878     +0.49844032     -0.51943727             
P   0.85           H   24.56          G   0.15           U   7                  
Residuals in seconds of arc
240728 F51  0.2+  0.0     240731 M45  0.6-  0.7+    240731 595  0.3-  0.3+
240728 F51  0.3-  0.4+    240731 M45  0.3-  0.3+    240731 L65  0.2+  0.0
240728 F51  0.2+  0.2-    240731 K19 (0.5+  1.2+)   240731 I93  0.1-  0.1+
240730 I41  0.2+  0.1+    240731 K19 (1.3-  0.4-)   240731 I93  0.0   0.1-
240730 I41  0.4-  0.4-    240731 K19  0.8-  0.7-    240731 I93  0.2+  0.1-
240730 I41 (0.3-  2.1+)   240731 L65  0.0   0.1-    240731 C40  0.3-  0.2+
240730 I41 (0.7-  2.2+)   240731 595  0.4-  0.4+    240731 C40  0.0   0.0
240731 I41  0.4-  0.1-    240731 958  1.0+  0.3+    240731 C40  0.0   0.2-
240731 I41 (0.5+  0.9-)   240731 L65  0.1-  0.2-    240731 C40  0.0   0.9+
240731 900  0.7+  1.1+    240731 958  0.4+  1.1-    240731 C40  0.1+  0.2+
240731 900  0.0   0.3-    240731 595  0.6-  0.7+    240731 C40  0.2+  0.4+
240731 900  0.1+  0.0     240731 958  1.2+  0.3+
Ephemeris:
2024 OS1                 a,e,i = 0.90, 0.17, 28                  q = 0.7460
Date    TT    R. A. (2000) Decl.     Delta      r    Elong.  Phase     V
2024 07 02    02 22 22.5 -49 16 54   0.2254  1.0520    92.8    74.9    24.1
...
2024 07 17    01 44 42.2 -45 12 55   0.1116  1.0509   105.1    69.0    22.3
...
2024 07 25    00 23 06.4 -33 31 29   0.05251 1.0462   124.3    53.4    20.2
...
2024 07 31    21 22 14.5 +16 01 41   0.03137 1.0407   144.3    34.7    18.6
2024 08 01    20 42 57.3 +26 02 19   0.03397 1.0397   135.9    42.8    19.0
2024 08 02    20 05 41.0 +33 39 24   0.03817 1.0386   127.5    50.8    19.4
...
2024 08 08    17 44 49.6 +48 41 50   0.07759 1.0310   100.5    75.2    21.7
...
2024 08 16    16 41 58.7 +50 32 40   0.1381  1.0185    88.6    83.7    23.2
...
2024 08 31    16 04 20.8 +50 35 29   0.2477  0.9883    78.0    87.8    24.6
M. P. C. Staff               (C) Copyright 2024 MPC           M.P.E.C. 2024-P03
    
    
More information about the Iaude
mailing list